Wind_Speed
21 21 22 22 20 19 19 19 19 19 18 17 16 15 14 12 10 10 9 5 4 3 4 5 6 7 8 8 9 8 8 7 7 8 8 8 8 9 9 10 10 10 10 9 9 8 7 6 5 4 4 3 3 2 2 1 1 2 3 3 3 4 5 7 8 7 7 7 7 8 9 11 13 13 13 15 16 17 17 17 17 18 19 18 17
17 18 20 21 20 19 20 20 19 17 15 15 15 14 14 13 10 11 10 7 6 5 6 7 8 9 9 10 9 8 7 7 6 6 6 7 6 6 6 7 6 7 6 6 6 5 4 3 3 2 2 2 2 3 3 3 5 5 5 6 6 7 7 9 10 9 8 8 8 9 11 12 13 13 14 16 18 20 20 20 20 20 21 22 22
13 16 18 19 19 19 19 18 15 13 13 14 14 13 13 12 11 12 10 8 8 7 7 8 9 10 11 11 10 9 8 7 6 6 6 6 6 5 5 4 4 4 4 4 4 4 3 3 3 3 4 4 5 5 5 6 7 8 8 9 9 9 10 10 11 11 11 11 11 11 11 12 14 16 17 17 18 19 20 21 22 22 22 23 24
13 15 16 16 17 16 15 12 10 10 11 12 11 10 10 10 11 13 12 10 10 9 8 9 10 11 12 12 11 10 9 9 8 8 7 7 6 6 5 5 5 5 6 6 6 6 6 6 6 6 6 6 7 8 8 9 10 10 10 12 12 12 12 12 12 13 14 14 13 13 13 14 15 16 18 19 20 20 21 22 24 25 24 23 24
12 12 12 11 11 10 9 7 6 7 7 8 8 9 9 10 11 14 14 12 12 12 11 10 11 12 12 12 12 12 11 11 11 10 10 9 9 9 8 8 8 8 9 9 9 9 9 9 9 9 9 9 9 10 10 11 13 14 14 15 16 15 14 14 14 14 14 14 15 15 16 17 17 17 17 18 20 21 23 24 25 26 27 26 25
12 11 10 9 8 7 6 5 6 6 6 7 8 8 9 10 12 14 15 15 14 14 14 13 12 12 12 13 13 13 13 12 12 12 12 12 12 11 11 11 11 12 12 13 13 13 13 13 12 12 11 11 11 11 12 12 14 16 16 17 19 17 14 15 16 15 14 15 17 18 18 17 18 19 20 20 20 22 23 24 24 26 28 28 28
13 12 11 11 9 7 6 7 9 9 9 9 9 9 10 11 13 15 16 17 16 16 16 16 16 15 14 14 14 14 14 14 14 14 14 15 15 15 15 15 15 16 16 16 17 17 17 17 16 15 14 13 12 12 13 13 15 16 16 17 17 15 13 14 15 14 15 16 18 18 19 20 21 22 24 26 25 25 26 26 25 26 28 28 28
16 15 14 13 11 9 8 10 11 12 12 11 10 9 9 11 13 15 17 18 18 18 18 18 18 18 18 18 17 18 18 17 17 17 17 17 17 18 18 18 19 19 19 20 21 21 21 21 20 19 17 16 15 15 15 15 15 16 16 16 15 13 11 11 13 14 15 16 18 18 19 20 21 23 27 29 28 27 28 28 28 28 28 28 28
16 15 15 14 13 12 12 11 13 13 12 11 11 9 8 10 12 15 18 19 20 20 20 20 20 21 21 21 21 21 20 20 20 19 19 19 19 19 21 21 21 22 22 23 24 25 25 25 24 23 21 20 19 18 17 17 17 16 15 13 12 12 11 12 13 14 14 16 17 19 20 20 20 23 28 30 29 29 29 29 29 29 29 29 28
14 15 16 15 14 14 12 12 14 13 12 12 10 9 9 11 12 15 18 20 22 23 23 22 22 22 23 23 24 24 23 23 23 21 20 21 20 21 22 23 23 25 25 26 27 27 28 29 29 28 27 26 23 20 18 17 17 17 15 13 13 13 13 14 14 14 14 16 18 19 21 22 24 27 29 30 32 32 31 31 31 31 31 30 29
16 15 15 15 14 14 13 13 14 14 14 14 13 12 12 13 13 15 17 20 23 24 24 24 24 25 24 24 26 27 27 28 27 24 24 24 23 24 25 25 27 27 28 29 30 31 31 31 31 31 30 30 26 21 18 18 17 17 15 14 14 15 15 15 16 16 16 16 18 21 24 25 26 28 29 30 32 33 33 33 33 33 33 33 32
17 16 16 16 16 16 15 15 15 16 16 16 15 15 16 16 16 16 17 19 21 23 25 26 27 27 26 26 27 29 30 30 29 28 28 28 28 28 28 29 30 30 30 32 32 34 35 33 32 32 32 30 27 21 17 17 17 17 16 15 15 16 16 16 17 17 18 19 20 22 25 26 28 30 30 30 32 33 33 34 34 35 35 35 35
18 18 18 17 17 17 17 16 16 16 17 17 17 18 18 19 20 20 20 20 19 21 24 26 28 29 28 28 30 32 33 31 29 29 31 30 30 30 30 31 33 32 33 35 35 37 38 34 32 31 28 24 21 18 15 16 16 16 15 15 15 16 17 18 18 18 20 21 22 24 26 27 29 31 30 30 32 33 34 34 34 35 36 36 37
19 19 20 19 19 19 18 18 18 18 18 19 19 19 20 22 22 23 23 22 20 19 22 25 28 31 32 32 34 35 36 34 30 30 30 29 29 30 30 33 35 36 37 38 37 37 37 34 29 23 17 13 13 12 12 13 14 14 14 15 16 17 18 19 19 20 21 22 24 25 26 26 28 30 31 31 32 33 34 34 35 36 37 37 37
20 20 20 20 21 20 20 20 20 20 21 21 21 22 23 24 24 25 25 24 23 22 23 25 27 31 33 35 36 37 38 37 35 33 33 31 31 31 32 34 37 38 38 37 34 32 31 30 25 17 12 9 8 9 10 11 12 14 15 16 17 18 19 19 19 21 22 23 24 25 26 27 28 30 31 32 33 34 35 36 36 37 39 39 39
21 20 20 21 21 21 21 21 21 21 22 22 23 24 25 26 26 26 26 26 26 26 26 25 27 30 31 32 33 35 36 36 34 34 34 33 31 30 31 33 34 34 31 28 24 20 19 19 17 14 12 10 9 11 12 12 13 15 16 17 18 19 19 20 21 22 23 24 25 26 27 28 29 30 31 33 34 36 37 37 38 39 40 41 40
20 19 20 20 20 20 20 20 20 21 21 21 23 23 24 25 27 27 26 26 27 27 27 27 28 29 30 30 30 30 31 31 29 29 29 28 27 27 28 29 28 25 23 21 18 15 14 14 13 13 13 12 12 13 13 14 15 16 17 18 19 19 20 21 22 22 23 24 25 27 28 29 30 31 32 33 35 36 38 38 38 39 40 42 42
18 18 19 20 20 21 21 22 23 23 23 24 25 25 25 26 27 28 29 29 30 30 30 30 29 28 30 31 29 30 31 29 27 26 26 25 24 25 25 24 22 20 19 18 17 15 14 14 14 14 13 13 13 14 14 16 17 18 18 19 20 21 20 20 22 23 24 25 26 28 29 30 31 32 33 34 35 36 37 37 38 39 41 42 43
19 20 22 22 23 24 26 26 27 28 28 29 30 30 29 29 30 31 31 32 32 33 33 32 30 30 31 31 30 31 32 30 27 27 26 25 25 25 23 21 20 19 18 18 18 16 15 15 15 15 15 15 15 15 16 17 18 19 20 20 22 22 21 20 22 24 25 26 28 29 30 31 31 31 32 33 33 34 35 36 37 39 41 41 41
25 26 27 28 29 30 31 32 32 32 32 32 33 33 33 32 33 33 33 33 33 34 35 35 34 33 33 32 31 31 30 28 28 27 27 26 26 25 24 22 21 19 18 19 19 18 18 17 16 16 17 16 16 17 18 18 19 20 20 21 22 23 22 21 23 25 27 28 30 31 32 32 32 32 33 34 35 35 36 37 38 39 40 39 38
31 31 32 33 33 34 34 35 35 35 34 33 34 34 34 34 35 35 36 36 36 37 39 38 35 34 33 31 30 28 26 26 26 25 25 26 26 25 25 24 22 21 20 21 21 21 20 18 18 18 18 18 18 19 19 19 19 19 20 20 22 23 24 24 25 27 29 30 31 32 32 33 34 35 37 38 39 41 41 41 41 40 39 38 37
34 35 35 36 36 36 36 37 37 37 36 36 36 36 36 36 36 36 37 37 37 39 40 37 32 31 30 28 28 28 27 26 26 26 25 26 26 26 26 26 23 22 22 22 23 23 21 19 19 19 19 19 20 20 20 20 19 19 20 21 22 23 25 27 27 28 30 31 31 32 33 34 35 37 39 40 41 42 42 41 40 40 38 38 38
37 38 39 39 39 39 39 40 40 40 40 40 40 39 39 38 37 38 38 38 38 39 40 37 32 31 30 27 27 29 27 26 26 27 26 26 26 27 27 27 25 23 22 23 24 24 21 20 20 21 21 21 21 21 21 21 21 21 22 22 23 24 26 28 29 29 30 31 32 32 34 35 37 38 39 40 40 41 40 39 39 38 38 39 39
41 42 42 42 42 42 43 43 44 44 45 45 44 43 42 41 40 40 40 40 40 40 40 38 36 35 35 32 29 28 27 26 26 26 25 24 25 26 27 27 26 25 24 25 25 24 22 22 23 22 22 23 22 22 22 22 23 24 24 25 25 26 27 28 29 30 31 32 33 34 36 37 38 39 39 39 39 38 36 36 37 37 37 39 40
45 45 45 45 46 47 47 48 48 48 48 49 49 48 47 45 44 43 43 43 42 41 40 39 37 36 36 35 34 32 30 28 27 26 25 25 24 25 26 27 28 28 27 27 26 24 24 24 24 23 23 24 23 24 25 25 25 26 26 26 27 27 28 29 29 30 31 32 34 36 37 38 38 38 38 37 37 36 35 34 35 37 38 40 41
47 48 48 48 48 49 49 49 49 49 49 50 51 51 51 50 48 46 45 45 44 42 42 41 39 37 36 35 35 35 34 32 31 30 31 30 28 27 28 28 29 29 29 28 27 26 25 25 24 24 25 25 25 26 27 27 28 28 27 27 27 27 28 29 29 30 31 33 35 36 37 37 36 36 35 35 35 36 36 37 38 39 41 42 43
48 48 47 47 48 48 47 47 46 46 46 46 47 48 48 49 49 48 47 47 46 45 44 42 40 39 37 35 36 36 34 33 32 32 32 32 32 32 32 32 32 32 33 32 32 32 32 30 28 27 28 28 29 29 29 29 29 29 28 28 27 28 28 29 29 31 32 33 35 35 36 35 34 33 33 33 34 35 36 38 40 41 42 43 43
44 44 44 44 45 45 45 45 45 45 44 43 42 43 43 44 47 48 48 48 47 48 47 44 41 40 39 37 37 38 37 35 34 33 32 31 30 31 32 33 34 35 36 36 35 34 33 32 31 30 30 31 31 31 30 30 29 28 28 28 27 28 28 29 30 31 32 33 34 34 33 33 32 31 32 32 33 34 35 37 39 40 41 41 41
38 39 39 39 39 39 39 40 41 42 43 43 43 42 41 41 43 44 45 46 48 50 49 44 41 40 40 39 39 39 39 37 35 34 33 32 29 27 27 29 30 31 31 30 30 29 29 29 29 29 30 30 30 30 30 29 28 28 27 27 28 29 29 29 31 32 33 33 33 32 31 31 30 30 31 31 32 33 35 36 37 38 38 38 37
34 35 35 35 35 34 34 34 35 36 38 40 41 42 42 42 42 42 42 43 45 49 51 49 46 44 43 42 42 42 41 38 35 34 35 35 33 29 28 28 28 27 26 25 25 25 25 25 25 26 27 27 28 29 29 28 28 28 28 28 29 30 30 30 31 32 32 32 31 30 29 28 28 29 29 30 31 32 33 34 35 36 36 35 34
34 34 33 33 32 31 31 30 30 31 33 36 38 39 40 42 42 42 42 42 43 45 48 49 49 49 48 46 44 44 41 37 36 36 35 35 35 33 31 30 27 23 20 20 20 20 20 21 22 23 24 25 27 28 28 28 29 29 28 28 28 28 29 30 30 30 30 30 29 27 27 27 27 28 29 30 30 31 31 32 32 33 33 33 31
29 29 28 28 28 28 28 28 29 29 30 32 34 36 36 38 39 39 39 40 42 44 45 45 45 46 47 44 42 42 39 35 34 35 34 34 34 32 29 26 23 19 18 18 18 18 19 21 22 22 23 24 26 27 27 27 28 28 27 27 28 28 28 28 28 28 27 27 25 25 25 25 25 26 27 28 29 29 29 29 30 31 31 30 28
23 23 24 24 25 25 26 27 28 29 29 30 32 33 34 35 37 37 35 36 38 42 43 43 43 45 46 44 43 43 41 37 36 35 36 36 33 27 23 21 20 18 18 18 18 18 19 20 22 22 23 24 25 25 25 26 26 25 26 27 27 28 27 26 26 25 25 23 23 23 23 23 24 25 26 27 27 27 28 28 29 29 28 27 25
20 20 21 22 23 24 26 26 27 29 30 31 31 32 33 34 34 35 35 36 37 38 39 40 40 43 44 45 44 44 42 41 40 39 38 35 31 26 23 22 21 19 19 19 19 20 21 22 22 23 23 24 24 24 24 25 25 24 25 25 25 26 25 24 24 23 22 21 21 21 21 21 22 23 24 25 25 26 26 27 27 27 26 25 23
18 19 20 21 23 24 25 26 27 28 29 30 30 31 31 32 33 33 36 38 36 34 34 36 36 37 40 43 43 43 42 41 40 37 34 31 27 24 23 24 23 21 20 20 22 23 23 22 22 23 23 22 21 21 22 22 22 22 23 23 23 23 23 22 21 20 19 19 19 19 19 20 20 21 22 23 24 24 24 25 26 26 25 23 21
18 19 19 21 23 24 25 26 27 28 29 29 29 28 27 28 30 31 33 36 33 30 31 33 32 33 35 39 42 43 42 40 38 36 32 27 23 22 23 23 22 21 21 22 23 23 23 22 22 22 21 18 18 18 18 19 20 20 21 21 22 21 21 19 18 18 18 17 17 17 18 18 19 20 21 22 22 23 24 24 24 24 24 22 21
18 19 20 22 24 25 27 28 28 27 27 27 27 25 22 23 26 28 29 32 31 28 28 29 29 30 33 36 38 41 41 39 37 35 31 27 23 23 23 22 21 21 21 22 23 22 21 21 21 19 17 16 16 17 18 18 20 20 21 21 20 19 17 17 16 16 16 15 15 16 16 17 18 19 20 21 22 23 23 23 23 23 23 23 21
18 19 21 23 25 27 29 29 27 25 22 21 23 22 21 20 22 25 27 28 28 27 24 23 24 28 31 32 34 37 39 37 35 34 33 30 27 27 28 27 25 24 22 21 21 20 20 20 19 17 16 16 17 18 18 19 21 21 20 19 18 16 15 15 14 14 13 13 14 15 15 16 17 18 20 21 22 23 24 24 24 24 23 23 21
17 19 21 23 26 28 28 26 22 18 15 15 16 18 19 19 20 23 26 25 25 26 26 23 22 24 27 28 29 31 33 34 34 34 34 35 33 33 33 30 27 24 22 20 18 18 17 17 16 15 16 17 18 19 19 20 21 20 18 17 15 14 14 13 12 11 11 12 13 13 14 15 17 18 19 21 22 23 25 25 25 24 24 23 21
17 19 21 24 26 27 25 21 17 14 12 11 12 14 16 16 17 22 23 21 18 20 22 21 19 19 21 23 23 24 26 30 31 33 37 40 41 38 34 29 24 21 20 18 16 15 16 15 15 16 17 18 18 18 18 19 19 18 16 15 14 13 12 11 10 9 10 11 12 13 14 15 16 18 19 21 22 23 24 24 24 24 24 23 21
16 18 20 23 24 23 21 18 14 11 8 6 6 7 8 12 16 19 19 16 13 12 14 14 13 13 15 17 19 20 23 25 26 30 34 39 39 34 30 26 21 17 16 15 15 15 15 15 15 16 17 17 17 17 17 16 16 15 14 13 12 11 10 8 8 9 10 10 11 12 13 15 16 18 19 21 21 22 23 24 24 24 23 22 21
15 17 19 21 22 21 17 15 13 7 5 4 3 6 9 11 11 12 14 15 13 12 15 15 12 12 13 14 17 19 21 21 23 25 27 29 31 29 25 22 18 15 15 15 16 16 15 14 15 15 15 16 16 16 15 15 15 14 13 12 11 9 7 7 7 8 9 10 11 12 13 15 16 17 19 20 21 22 23 24 24 24 23 22 21
14 16 17 18 20 19 16 14 11 6 8 9 8 9 12 10 7 7 10 14 14 13 14 14 12 12 13 12 13 14 14 15 19 25 28 29 29 27 23 20 17 16 16 16 15 15 15 15 14 14 15 15 16 15 14 14 14 13 12 11 9 7 6 6 6 7 8 9 11 12 13 14 16 17 18 19 20 22 23 23 24 24 24 23 22
13 14 15 16 17 17 15 16 14 9 7 6 6 7 9 8 8 8 9 11 13 12 12 11 11 12 13 12 11 9 8 8 9 15 26 33 32 26 21 18 17 15 15 15 15 15 15 14 13 13 14 15 15 14 13 13 13 12 11 9 7 6 5 6 6 6 8 9 10 11 12 14 15 16 17 19 20 21 22 22 23 23 23 22 22
13 13 13 13 14 13 12 13 13 11 8 7 5 5 5 4 6 9 9 10 10 11 10 10 11 12 13 14 13 11 10 8 5 5 14 23 25 21 16 15 15 14 14 14 14 14 14 13 13 12 13 14 13 12 13 13 12 11 9 7 6 5 5 5 5 6 7 8 9 10 12 13 15 16 17 19 20 20 21 21 22 23 23 22 21
11 11 11 11 11 10 9 8 7 6 5 6 5 4 4 3 3 7 10 10 9 9 8 9 11 12 12 12 11 11 12 12 9 7 9 13 15 15 15 14 14 14 13 13 14 14 13 12 12 11 12 13 12 12 13 13 11 10 8 7 6 5 5 5 5 6 7 8 9 10 11 12 14 16 17 18 19 19 20 21 21 22 22 22 21
13 11 10 9 9 9 7 6 4 3 3 3 3 3 2 2 4 6 9 10 9 9 9 10 10 11 11 10 9 11 14 15 14 14 14 14 14 15 15 14 13 13 14 14 14 13 12 11 11 11 11 12 13 12 13 12 10 9 8 7 6 6 6 5 6 6 7 8 8 9 10 11 13 14 16 17 18 19 19 20 21 22 22 22 22
17 14 11 8 8 8 6 5 3 2 2 3 3 3 3 3 1 3 6 9 10 11 12 11 11 11 11 10 10 12 15 17 18 19 18 17 17 17 15 13 13 14 15 15 14 12 11 11 11 11 11 12 13 12 12 11 9 8 7 7 7 6 6 6 6 7 7 8 8 9 10 11 12 13 14 16 17 18 19 19 20 21 22 22 22
18 17 15 11 8 7 6 5 4 2 2 0 1 2 3 4 4 3 2 4 8 10 10 11 11 11 10 11 11 12 13 14 16 18 18 17 16 15 13 13 14 16 15 13 12 12 11 11 10 10 12 12 12 12 11 10 8 8 7 7 7 6 6 6 6 7 8 8 8 9 10 10 11 12 13 15 16 17 18 19 19 20 21 21 21
17 17 17 14 12 9 8 7 5 3 2 2 2 2 2 3 4 4 4 4 6 8 9 9 10 11 10 10 10 11 13 15 16 16 16 15 14 13 13 15 16 16 14 12 12 12 11 10 10 11 12 12 12 11 10 8 8 7 7 7 6 5 5 6 7 7 8 8 9 10 10 11 11 12 13 14 15 16 17 18 19 19 20 20 21
15 15 15 15 15 13 12 11 9 7 5 4 4 3 2 2 3 4 5 5 6 8 9 9 10 10 9 9 8 9 11 14 15 15 15 16 16 16 17 18 17 14 12 12 12 11 10 10 11 11 11 11 11 9 8 8 7 7 6 6 5 5 6 6 7 8 8 9 9 10 10 11 11 12 12 13 14 15 16 17 18 18 19 20 20
Wind_Direction
220 218 220 225 233 242 250 258 266 271 274 273 272 274 276 281 273 243 224 207 202 212 204 191 181 173 168 168 169 172 173 170 165 159 158 158 155 150 145 142 139 136 135 133 130 129 130 128 127 127 126 131 136 142 157 185 222 247 256 252 254 255 259 273 280 280 286 298 307 316 323 326 327 330 332 333 333 332 332 333 333 333 333 331 333
220 222 224 225 229 239 247 256 264 266 265 263 265 268 269 271 261 238 226 212 203 207 201 191 183 177 174 175 178 180 179 176 171 166 163 160 157 152 147 143 140 140 140 140 142 146 152 157 166 177 191 210 227 228 225 235 244 250 257 262 267 266 268 279 287 287 284 284 295 307 315 322 324 323 324 326 327 326 327 328 328 329 330 329 327
204 213 218 224 230 239 247 253 255 254 254 260 266 266 258 256 248 232 221 207 203 207 204 199 193 186 184 186 187 187 187 185 183 183 182 178 176 174 168 166 167 171 176 182 188 196 210 227 241 254 270 278 279 278 274 266 265 269 270 269 271 272 272 276 283 289 290 286 289 297 305 315 321 320 319 320 321 322 322 324 324 324 326 326 323
208 215 218 224 230 233 236 238 240 245 251 259 265 263 253 248 239 229 220 206 205 210 210 208 205 199 197 198 197 197 197 196 196 199 201 201 204 208 209 213 217 222 227 230 233 240 248 257 265 270 277 282 283 285 285 282 280 282 282 280 277 275 276 277 277 283 291 292 292 296 303 308 312 313 316 319 321 321 321 322 321 319 320 322 319
197 201 201 203 207 211 217 227 242 252 255 256 259 259 253 244 237 232 225 213 209 215 218 218 215 211 207 207 207 208 207 207 208 209 212 214 218 222 229 237 244 250 257 259 260 262 263 267 270 271 272 273 274 274 273 275 278 279 283 282 277 275 279 282 280 281 288 292 291 294 300 305 309 311 314 319 321 320 320 320 319 317 317 319 317
183 185 183 185 190 200 218 245 259 261 261 259 259 262 256 242 236 236 232 224 218 219 222 224 224 223 219 216 215 216 216 218 218 219 221 224 227 231 237 242 246 253 259 262 264 265 268 269 268 267 267 267 269 269 267 269 271 273 278 279 276 278 280 277 277 280 283 289 295 299 302 305 311 315 313 314 317 316 315 316 315 314 315 316 316
193 196 199 202 203 212 237 257 261 259 254 250 251 258 257 244 237 237 236 232 228 226 227 228 228 230 230 228 227 227 227 228 229 231 233 235 238 242 246 248 251 255 258 259 261 262 264 265 264 262 262 265 267 267 267 268 269 271 275 275 275 281 280 271 273 279 284 291 299 304 307 309 312 315 313 314 318 317 315 314 313 312 313 314 314
192 198 206 210 215 235 258 264 260 254 249 247 249 255 260 251 242 240 238 236 233 232 233 233 232 233 235 235 236 236 237 238 239 240 241 244 248 252 254 255 257 259 260 262 263 264 263 264 263 262 262 266 273 276 273 272 272 274 276 275 276 281 278 271 272 279 288 296 301 304 307 310 311 311 311 314 316 315 314 313 312 311 310 311 312
195 201 210 217 228 245 257 258 255 253 253 254 252 253 261 259 249 244 241 238 236 235 237 237 236 236 236 237 239 242 244 245 247 249 250 252 255 257 259 261 261 262 264 265 266 267 268 269 268 266 265 269 276 280 278 276 275 276 276 276 279 281 280 277 277 282 290 297 299 299 300 303 304 303 306 310 312 312 312 310 310 309 309 309 310
207 212 219 225 235 243 244 244 249 256 264 268 267 266 269 265 257 251 246 241 237 236 238 240 240 240 241 241 243 245 248 250 252 254 256 258 260 262 264 264 265 266 267 268 269 269 270 271 269 268 268 271 274 276 275 274 275 276 276 276 279 281 281 282 284 287 291 293 294 293 295 299 302 302 305 309 310 310 311 310 309 309 308 308 307
215 223 228 230 232 233 232 235 244 254 263 269 273 275 272 268 265 259 253 247 242 239 240 242 243 243 244 245 247 248 249 252 255 256 258 261 264 265 267 268 269 269 270 270 271 271 271 269 267 267 269 267 266 268 271 270 270 272 273 274 277 280 281 285 288 289 291 292 292 292 295 300 302 302 305 308 308 309 310 310 309 309 308 307 307
223 229 232 232 231 230 230 233 238 247 255 261 266 269 269 270 269 266 262 256 250 245 245 247 247 246 245 246 248 250 251 251 253 256 258 261 265 267 270 273 273 273 274 274 274 274 273 271 273 278 278 268 259 258 262 264 265 267 269 272 277 280 283 287 291 292 293 295 294 293 296 300 302 302 304 306 307 307 307 307 307 307 307 307 307
226 229 230 231 231 231 234 236 239 244 250 255 260 263 266 269 270 271 270 266 260 253 251 252 253 253 251 250 251 254 254 253 252 255 257 259 264 268 270 272 274 275 276 274 274 274 273 275 280 284 282 267 254 252 256 261 263 265 269 274 279 283 287 292 295 295 295 296 296 295 296 299 301 301 303 305 305 305 305 306 306 306 306 305 306
224 227 229 229 229 231 234 237 241 244 247 251 255 259 263 265 266 268 271 273 271 264 258 257 257 257 257 256 256 258 260 260 258 258 258 259 263 266 269 272 275 276 276 275 276 275 275 278 281 279 271 259 255 259 262 262 263 266 272 279 283 287 291 296 298 297 296 296 296 296 297 299 300 301 303 305 304 304 304 304 304 304 303 303 304
226 228 231 232 231 234 237 241 245 248 250 253 255 257 260 262 263 264 265 269 271 269 266 264 263 261 259 258 258 259 261 263 263 262 263 263 264 266 268 271 273 275 275 276 278 277 275 274 272 267 266 266 263 263 262 262 267 274 280 286 289 292 296 298 298 297 297 296 297 298 301 302 302 303 305 305 305 305 305 305 305 304 304 304 305
232 233 236 237 237 240 245 249 252 255 257 259 259 260 261 262 263 265 266 267 268 269 269 269 268 267 264 261 262 263 262 263 264 264 265 265 265 264 266 268 270 272 272 272 273 270 265 260 257 259 267 268 262 265 270 273 277 281 286 289 291 295 297 298 298 297 297 297 299 302 304 305 305 305 305 306 306 307 307 307 307 306 306 306 307
237 237 239 242 244 247 250 253 255 258 261 263 263 263 263 263 265 268 270 271 271 270 270 269 268 269 268 266 266 266 265 263 262 262 261 260 259 258 260 262 264 264 262 261 260 255 249 248 249 253 258 259 262 270 275 279 282 285 288 290 292 294 296 297 297 297 299 301 303 304 305 305 305 305 306 307 308 308 307 307 307 307 306 307 307
244 244 246 247 249 252 254 257 260 262 264 265 265 266 265 264 265 268 271 273 274 274 273 270 267 266 267 267 265 265 265 264 261 259 256 254 253 253 255 256 254 252 252 251 248 244 243 244 246 249 253 258 264 269 273 278 282 285 289 291 293 295 297 298 298 300 303 304 304 304 304 304 305 306 308 309 309 308 307 307 307 306 306 306 307
257 258 259 259 261 262 263 264 265 267 268 269 270 270 269 267 267 268 269 271 272 273 272 269 267 265 265 266 265 263 263 262 259 255 252 251 251 252 252 248 244 244 245 244 242 239 238 239 242 248 255 259 263 267 273 280 285 288 291 294 295 298 301 302 302 303 304 304 303 303 304 304 305 307 308 308 308 307 306 305 305 304 303 303 304
265 266 266 267 267 268 268 268 269 269 270 270 271 272 271 271 271 270 271 271 270 270 270 269 267 266 266 266 264 262 261 259 253 250 250 250 249 248 246 242 241 241 239 239 240 238 237 239 243 249 254 257 262 268 274 281 288 292 296 299 301 303 305 304 304 305 305 305 305 305 305 305 304 305 305 306 307 307 306 305 303 302 301 302 302
269 269 270 269 269 269 269 269 270 269 269 269 269 269 269 270 271 271 271 270 269 269 269 268 265 264 264 264 261 260 259 255 251 249 249 248 246 243 241 238 238 237 234 237 242 241 239 242 246 250 254 257 262 268 274 280 286 292 298 303 305 307 306 306 306 307 308 309 309 308 307 306 306 307 309 310 310 310 310 309 307 305 304 304 304
274 273 273 272 271 271 270 270 270 269 268 267 266 266 267 267 267 268 268 268 267 267 268 268 265 261 261 260 258 256 253 248 247 248 246 243 241 239 237 235 235 234 234 238 243 245 243 243 246 250 253 257 262 268 274 281 287 292 297 302 305 307 306 306 306 307 309 310 310 310 309 308 308 309 310 310 309 309 310 309 307 306 306 306 306
276 275 274 274 273 273 272 272 271 270 269 268 266 265 265 264 264 265 265 264 264 264 265 265 264 260 258 257 255 252 248 242 241 243 242 240 237 235 234 234 232 231 233 237 241 245 246 247 249 252 254 258 264 270 276 282 287 292 296 300 303 305 305 305 305 306 307 309 309 309 308 308 308 308 308 307 306 306 307 306 305 305 306 306 306
275 275 274 273 272 271 271 271 270 270 269 267 266 264 263 262 262 262 263 262 260 260 260 261 261 261 259 255 251 250 247 240 237 239 241 239 237 234 233 232 231 230 233 237 241 246 250 252 254 256 258 263 268 274 278 283 287 291 296 299 301 303 304 303 303 304 305 307 307 308 308 308 307 307 306 305 303 303 303 302 302 302 303 303 303
275 275 274 272 271 270 270 269 269 268 267 266 266 265 264 263 261 260 261 261 259 257 256 258 259 261 261 257 253 251 249 242 237 238 243 244 243 239 234 232 232 234 237 241 246 251 254 257 259 261 264 269 274 278 281 285 288 292 295 298 299 301 301 301 301 303 305 306 307 308 308 308 307 306 304 303 303 302 300 299 299 300 301 302 302
279 278 278 277 275 274 273 271 270 268 266 265 264 264 264 263 261 259 258 258 257 256 254 254 255 256 257 257 255 253 251 249 246 245 247 248 247 242 237 233 233 235 238 242 247 252 255 258 261 265 268 273 277 280 283 286 289 292 294 296 298 299 299 299 300 302 304 305 307 308 308 308 307 306 305 305 305 305 305 304 304 304 304 305 306
283 282 281 279 278 276 275 273 271 269 267 265 263 262 261 260 259 256 254 254 255 254 253 252 251 251 252 254 255 253 251 252 252 251 250 249 246 242 239 236 236 237 240 244 249 253 256 256 258 263 270 275 278 281 283 285 287 290 293 294 296 297 297 297 299 301 303 305 306 307 307 306 305 305 304 305 306 307 307 308 307 307 307 307 308
284 283 282 281 279 277 275 273 271 268 266 264 262 260 258 256 255 255 253 252 252 253 254 253 250 248 249 249 249 250 253 253 252 250 251 252 252 249 247 246 245 246 248 251 255 258 259 258 259 264 270 275 278 280 282 284 286 289 291 293 294 295 295 296 297 299 301 303 304 304 303 302 302 303 303 304 306 307 308 307 307 307 307 308 310
285 284 283 282 280 279 277 275 272 270 266 263 260 258 257 254 253 252 251 249 248 249 251 251 248 247 247 243 239 243 252 253 248 244 246 250 252 251 250 250 250 250 252 254 256 258 259 261 264 267 269 272 275 277 280 283 286 288 290 291 292 292 293 294 296 298 300 301 301 300 300 299 300 301 303 304 307 308 307 306 306 307 308 309 310
289 288 287 285 284 281 279 276 274 272 270 266 262 259 256 254 252 250 248 248 247 247 247 248 248 249 249 247 242 241 247 251 246 236 233 237 239 239 240 242 245 247 249 251 253 255 258 262 264 266 268 271 274 277 280 283 286 287 288 290 290 291 293 294 295 297 298 298 298 297 298 298 299 301 304 305 307 307 306 306 307 309 310 311 310
291 290 289 289 287 286 283 279 275 271 269 268 266 262 257 254 252 250 248 246 246 247 247 247 248 249 250 249 244 238 239 248 248 237 231 232 231 230 231 233 235 237 238 242 247 253 259 264 267 269 273 276 278 280 283 284 285 285 286 286 286 288 290 291 293 294 295 295 295 295 296 298 300 303 304 305 306 307 308 309 311 311 312 311 310
292 292 292 291 290 289 287 283 279 275 270 267 266 264 260 254 250 248 248 246 245 247 248 246 245 246 247 246 243 237 238 246 249 247 249 249 241 235 236 235 229 226 230 239 250 259 264 269 272 274 278 280 280 282 283 282 282 283 284 284 285 286 287 288 290 291 292 292 294 295 296 299 302 304 305 306 308 310 311 313 314 314 313 311 309
294 294 294 293 292 289 287 284 282 279 274 270 266 263 261 256 249 243 244 245 243 244 246 245 242 243 245 245 246 246 249 252 253 255 257 252 245 244 249 244 234 233 239 247 256 262 268 273 276 278 280 280 280 280 279 279 280 282 283 284 285 285 286 288 289 290 290 291 293 294 297 301 304 306 308 310 311 313 314 316 318 318 316 312 309
298 298 299 298 295 293 291 288 285 281 278 274 269 264 260 258 251 242 238 241 243 242 243 244 242 241 243 244 245 247 249 251 250 249 247 244 244 249 254 249 241 240 241 247 255 261 266 272 277 280 280 278 278 278 277 277 279 279 279 281 282 284 286 288 289 289 289 290 292 295 300 304 306 308 310 313 314 315 318 320 322 322 320 316 311
303 303 303 300 299 298 296 294 291 286 281 276 273 268 260 255 251 242 235 237 242 243 242 242 241 239 240 241 241 243 245 246 245 243 241 240 239 241 243 242 239 236 237 244 253 259 264 271 275 278 277 276 276 275 274 274 275 276 277 279 281 283 285 287 287 287 288 290 293 298 303 305 307 310 314 316 317 319 322 324 326 328 326 320 314
308 308 308 307 306 305 302 299 295 290 282 275 272 272 266 255 249 242 233 232 237 243 244 242 239 237 237 237 238 240 242 243 245 246 242 234 227 227 229 230 230 231 235 244 251 256 262 267 270 270 270 269 269 270 271 274 276 278 280 281 281 282 282 282 283 284 286 289 295 301 305 308 311 314 318 321 323 326 327 329 331 332 330 324 318
316 317 318 318 316 313 309 306 300 292 282 271 266 270 271 260 247 237 230 227 229 235 243 242 237 235 236 236 236 238 240 241 243 241 230 218 216 222 222 220 224 229 234 240 247 254 258 259 259 260 259 261 266 270 275 278 280 281 282 282 280 279 278 278 280 282 286 293 300 304 308 311 315 319 323 327 330 332 332 333 335 337 335 330 324
323 324 324 323 321 319 316 312 306 296 285 273 267 266 267 261 246 230 223 222 222 225 233 238 234 231 234 235 236 238 240 241 242 236 223 212 214 220 218 216 219 224 228 235 241 246 249 249 251 254 258 263 268 273 276 279 280 281 280 277 273 272 273 273 276 281 289 297 302 305 310 316 320 325 329 333 335 336 337 339 340 340 338 333 328
325 327 329 329 328 327 323 318 312 302 289 279 271 263 259 256 243 224 216 217 219 222 227 232 231 230 234 237 238 239 240 241 241 239 230 219 215 217 217 214 215 218 223 229 234 238 243 247 251 257 262 266 270 274 276 278 279 277 272 267 265 267 269 270 273 281 291 298 303 308 316 322 326 329 333 337 340 341 343 343 341 339 337 335 331
331 334 337 337 336 335 333 330 323 311 297 284 272 263 258 247 226 211 207 208 212 218 223 227 228 228 233 237 239 241 241 238 239 241 233 218 208 207 210 210 211 215 222 229 235 238 244 249 254 259 264 267 270 274 276 276 273 267 260 259 261 261 262 266 276 288 298 304 309 316 322 326 330 333 337 341 343 343 343 344 342 340 338 337 335
338 341 344 343 344 345 347 345 338 329 319 299 274 258 235 209 198 197 199 200 201 209 218 224 227 227 231 238 241 241 239 234 235 239 232 214 200 198 203 206 209 216 225 234 240 243 247 252 256 260 264 266 268 271 272 269 264 257 253 254 255 253 256 268 283 294 303 309 315 320 325 329 334 338 341 342 342 342 345 347 345 341 340 340 340
345 348 350 351 354 356 360 360 356 9 61 87 120 153 159 167 174 182 192 196 199 209 219 225 229 227 230 241 244 238 233 229 226 224 216 200 191 195 203 206 208 215 224 233 239 241 245 252 257 262 266 267 266 267 266 261 256 252 249 248 247 247 256 273 286 296 307 314 318 323 327 332 337 341 342 341 342 346 349 349 346 343 343 345 346
354 355 355 360 4 9 18 23 23 59 108 105 105 131 151 160 152 147 173 191 199 208 215 220 225 228 234 244 240 224 216 218 217 216 214 207 198 196 201 203 206 213 221 228 233 236 242 250 259 266 270 268 265 263 260 254 250 246 242 240 240 246 260 274 285 299 310 317 321 324 328 333 339 341 341 342 346 349 350 349 347 347 348 350 351
4 1 360 7 16 25 42 52 54 67 92 88 83 116 147 170 179 178 190 201 206 213 216 215 218 228 238 248 247 230 217 218 213 214 218 216 206 198 198 201 205 212 220 225 230 235 242 251 260 267 270 268 263 258 252 246 242 239 235 233 238 247 261 273 287 302 311 317 321 324 328 334 338 339 341 346 349 350 348 349 351 352 351 352 353
9 7 5 13 25 38 55 66 64 62 63 56 63 94 113 147 186 199 206 207 208 217 222 219 221 230 242 252 256 248 239 241 232 197 206 208 203 198 200 205 209 216 223 226 231 239 244 250 257 265 268 265 259 250 244 240 236 232 230 232 238 245 257 270 285 300 309 313 318 323 328 334 336 338 342 347 349 348 347 350 354 355 355 355 356
13 14 13 16 28 40 53 67 72 70 64 59 67 92 93 87 164 193 201 206 210 216 218 218 224 230 240 251 254 241 232 237 238 221 209 206 201 199 203 209 214 221 224 226 231 238 244 250 256 262 263 259 251 243 238 234 230 228 231 233 236 243 256 268 282 295 302 307 314 321 327 332 335 337 342 346 347 347 348 351 356 358 358 358 359
21 21 18 19 27 35 46 62 73 80 91 95 103 129 131 91 100 140 168 185 197 203 204 207 216 223 230 242 243 229 225 230 233 230 227 222 215 214 215 215 215 218 222 226 232 237 244 249 251 252 253 251 244 237 233 230 228 231 233 235 239 247 256 266 279 289 295 301 310 318 323 329 333 336 339 342 344 346 349 352 356 359 0 360 0
29 27 24 23 26 30 36 49 54 57 91 128 159 190 205 213 178 127 146 166 183 194 201 206 214 221 227 231 232 229 227 227 229 230 229 224 221 222 221 216 213 216 220 225 232 238 242 241 239 241 244 242 236 232 230 228 230 235 238 241 245 250 257 268 278 286 291 299 307 313 319 326 330 333 336 339 341 345 350 354 357 360 1 0 360
31 31 30 28 28 26 25 28 27 23 32 64 229 239 237 240 248 257 213 184 188 194 203 210 214 216 219 222 224 222 215 211 212 215 215 215 216 218 216 214 216 220 222 225 230 233 232 229 229 233 235 232 229 228 228 229 233 238 241 243 246 250 260 273 281 287 293 300 307 311 315 321 326 330 334 338 340 344 350 354 356 359 360 359 360
32 34 34 35 36 32 24 19 17 12 7 357 335 314 300 280 264 258 252 233 213 207 209 214 216 216 218 222 220 207 195 193 198 201 202 205 210 214 215 218 221 221 220 221 222 222 219 219 222 226 226 225 225 226 226 227 231 232 232 235 241 252 266 278 285 291 297 302 307 310 313 319 324 329 333 337 340 344 349 352 355 357 358 358 1
35 36 36 38 40 40 37 35 35 35 33 28 15 360 340 323 302 272 253 241 230 220 217 217 220 222 222 225 222 209 198 198 202 202 201 204 210 215 217 218 218 216 210 209 211 213 213 214 217 219 219 220 220 221 221 222 223 223 226 234 245 259 273 282 289 295 300 303 306 308 312 318 322 326 330 335 339 343 347 350 354 356 356 357 1
Height
3118 3119 3120 3122 3123 3124 3124 3125 3126 3126 3127 3127 3127 3128 3129 3129 3129 3129 3130 3130 3131 3132 3132 3133 3133 3133 3133 3134 3135 3136 3137 3137 3138 3138 3139 3139 3140 3140 3140 3141 3141 3142 3142 3143 3144 3144 3145 3146 3146 3147 3147 3148 3148 3149 3150 3150 3151 3151 3151 3152 3152 3152 3152 3152 3152 3152 3152 3152 3152 3152 3151 3151 3150 3150 3149 3149 3148 3148 3147 3146 3146 3145 3144 3144 3144
3117 3118 3119 3121 3122 3123 3124 3124 3125 3126 3126 3126 3126 3127 3128 3127 3128 3128 3129 3129 3130 3131 3132 3133 3134 3134 3134 3134 3135 3136 3137 3137 3138 3138 3139 3139 3140 3140 3141 3141 3142 3142 3143 3143 3144 3145 3145 3146 3146 3147 3147 3148 3148 3149 3150 3150 3150 3150 3151 3151 3151 3152 3152 3152 3151 3151 3151 3151 3151 3150 3150 3150 3149 3149 3148 3147 3147 3146 3145 3144 3144 3143 3142 3141 3140
3115 3117 3118 3120 3121 3122 3123 3124 3124 3125 3126 3125 3126 3126 3126 3126 3127 3128 3128 3129 3130 3131 3132 3133 3134 3134 3134 3135 3135 3136 3137 3137 3138 3138 3139 3140 3140 3141 3141 3142 3142 3142 3143 3143 3144 3145 3145 3146 3146 3147 3147 3148 3148 3149 3149 3150 3150 3150 3150 3150 3150 3151 3151 3151 3151 3150 3149 3150 3149 3149 3149 3149 3148 3147 3146 3146 3146 3145 3144 3143 3142 3141 3140 3139 3138
3115 3116 3118 3119 3120 3122 3123 3123 3124 3124 3125 3125 3125 3125 3124 3125 3126 3127 3128 3129 3130 3131 3132 3133 3133 3134 3134 3135 3136 3136 3137 3137 3138 3138 3139 3140 3140 3141 3141 3142 3142 3142 3143 3143 3144 3144 3144 3145 3146 3146 3146 3147 3147 3148 3148 3148 3148 3148 3149 3149 3149 3149 3149 3150 3150 3149 3149 3148 3148 3148 3147 3147 3147 3146 3145 3144 3143 3142 3142 3141 3140 3139 3138 3138 3136
3114 3116 3117 3118 3120 3121 3122 3123 3123 3123 3124 3124 3124 3124 3123 3124 3125 3126 3127 3128 3129 3130 3131 3132 3133 3133 3134 3135 3136 3136 3137 3137 3138 3138 3139 3139 3140 3140 3141 3141 3142 3142 3142 3143 3143 3143 3143 3144 3144 3145 3145 3145 3146 3146 3146 3147 3146 3146 3147 3147 3146 3147 3148 3148 3148 3148 3148 3147 3146 3146 3146 3145 3145 3144 3144 3143 3141 3140 3139 3139 3137 3136 3135 3135 3134
3114 3115 3117 3118 3119 3120 3121 3122 3122 3122 3123 3123 3123 3123 3123 3123 3124 3125 3126 3127 3128 3129 3130 3131 3132 3133 3133 3134 3135 3136 3136 3137 3137 3138 3139 3139 3139 3140 3140 3141 3141 3141 3141 3142 3142 3142 3142 3142 3143 3143 3143 3143 3144 3144 3144 3144 3144 3144 3145 3145 3144 3144 3145 3146 3146 3146 3146 3146 3145 3144 3144 3143 3143 3142 3141 3141 3140 3139 3138 3137 3136 3134 3133 3132 3132
3113 3115 3116 3117 3118 3119 3120 3121 3121 3121 3121 3122 3122 3122 3123 3123 3123 3124 3125 3126 3127 3128 3129 3130 3131 3132 3132 3133 3134 3135 3135 3136 3136 3137 3137 3138 3139 3139 3139 3140 3140 3140 3140 3140 3140 3140 3140 3140 3141 3141 3141 3141 3141 3142 3142 3142 3142 3142 3142 3142 3142 3142 3143 3143 3143 3144 3144 3144 3143 3142 3142 3141 3140 3140 3138 3138 3137 3136 3135 3135 3134 3133 3131 3130 3129
3113 3114 3115 3116 3117 3118 3119 3120 3120 3120 3120 3120 3120 3121 3122 3122 3123 3123 3124 3125 3126 3127 3128 3128 3130 3130 3131 3132 3133 3133 3134 3135 3135 3135 3136 3136 3137 3138 3138 3138 3139 3139 3139 3139 3139 3139 3139 3138 3139 3139 3139 3139 3139 3139 3140 3140 3140 3140 3140 3140 3140 3140 3141 3141 3141 3142 3142 3142 3141 3140 3140 3139 3138 3137 3135 3135 3134 3134 3133 3132 3131 3130 3129 3128 3127
3112 3112 3113 3114 3116 3117 3118 3118 3118 3117 3118 3119 3119 3119 3120 3121 3121 3122 3123 3124 3125 3126 3126 3127 3128 3129 3129 3130 3131 3132 3132 3133 3133 3134 3134 3134 3135 3136 3136 3137 3137 3137 3137 3136 3136 3136 3136 3136 3137 3137 3137 3137 3137 3137 3137 3137 3137 3137 3138 3138 3138 3138 3139 3139 3139 3140 3140 3140 3139 3138 3138 3137 3136 3134 3133 3132 3131 3131 3130 3129 3128 3127 3126 3125 3124
3111 3111 3112 3113 3114 3115 3116 3116 3116 3116 3116 3117 3116 3116 3117 3119 3120 3120 3121 3122 3123 3124 3125 3126 3126 3127 3128 3128 3129 3129 3130 3130 3130 3132 3132 3132 3133 3133 3134 3134 3134 3134 3134 3133 3133 3133 3133 3134 3134 3134 3134 3134 3135 3135 3135 3135 3135 3135 3135 3136 3136 3136 3136 3137 3137 3137 3137 3137 3137 3136 3135 3134 3133 3131 3130 3129 3127 3127 3126 3125 3124 3123 3122 3121 3121
3109 3110 3111 3111 3112 3113 3114 3115 3115 3115 3115 3114 3114 3115 3116 3117 3118 3119 3120 3120 3121 3122 3123 3124 3124 3125 3126 3126 3126 3126 3127 3127 3128 3130 3130 3130 3130 3130 3130 3131 3131 3131 3131 3130 3129 3129 3129 3129 3129 3129 3129 3130 3131 3131 3132 3132 3132 3133 3133 3133 3133 3134 3134 3134 3134 3134 3134 3134 3134 3133 3131 3131 3130 3128 3127 3126 3124 3123 3122 3121 3120 3119 3118 3117 3116
3108 3108 3109 3109 3110 3111 3112 3113 3113 3114 3114 3114 3114 3115 3115 3116 3117 3117 3118 3118 3119 3120 3121 3121 3122 3122 3123 3124 3123 3123 3123 3124 3126 3127 3127 3127 3127 3127 3127 3127 3127 3127 3127 3126 3125 3124 3123 3124 3125 3125 3125 3126 3126 3127 3128 3129 3130 3130 3131 3131 3131 3131 3131 3132 3131 3131 3131 3131 3131 3129 3128 3128 3126 3125 3124 3124 3122 3120 3119 3118 3116 3115 3114 3112 3111
3105 3106 3107 3107 3108 3109 3110 3111 3111 3112 3112 3113 3113 3114 3114 3114 3114 3115 3115 3115 3116 3117 3118 3119 3119 3120 3120 3121 3120 3120 3119 3120 3123 3124 3124 3124 3125 3125 3125 3124 3123 3123 3122 3122 3122 3120 3118 3120 3122 3122 3122 3122 3122 3123 3124 3126 3127 3127 3128 3128 3128 3128 3128 3128 3128 3128 3128 3127 3127 3126 3125 3125 3123 3121 3121 3121 3119 3117 3116 3115 3114 3112 3110 3108 3107
3103 3104 3105 3106 3106 3107 3108 3109 3109 3110 3110 3111 3111 3112 3112 3112 3112 3112 3112 3113 3113 3114 3115 3115 3116 3116 3117 3117 3118 3117 3115 3116 3120 3121 3120 3121 3122 3122 3122 3121 3119 3119 3118 3117 3118 3117 3115 3116 3118 3119 3119 3120 3120 3120 3122 3123 3124 3125 3125 3125 3125 3125 3125 3125 3125 3125 3125 3124 3124 3123 3122 3122 3120 3118 3118 3117 3115 3114 3112 3111 3110 3108 3106 3104 3103
3101 3102 3103 3103 3104 3105 3106 3107 3107 3108 3108 3109 3109 3110 3110 3109 3110 3110 3110 3110 3111 3111 3112 3112 3113 3113 3113 3114 3114 3114 3113 3113 3116 3117 3117 3118 3118 3119 3119 3117 3116 3115 3114 3114 3115 3115 3113 3113 3114 3115 3116 3118 3118 3119 3120 3121 3122 3122 3122 3122 3122 3122 3122 3122 3122 3122 3121 3121 3120 3119 3119 3118 3117 3115 3114 3113 3111 3110 3108 3106 3105 3103 3100 3099 3098
3099 3100 3101 3102 3102 3103 3104 3105 3105 3106 3106 3107 3107 3108 3108 3108 3107 3107 3108 3108 3108 3109 3109 3109 3110 3110 3110 3110 3110 3110 3109 3110 3112 3113 3113 3114 3114 3114 3114 3114 3113 3112 3112 3112 3112 3112 3111 3111 3112 3113 3114 3115 3117 3117 3118 3119 3119 3119 3119 3119 3119 3119 3119 3119 3119 3118 3118 3118 3117 3116 3115 3114 3113 3112 3111 3109 3107 3105 3103 3101 3100 3097 3095 3093 3092
3096 3098 3098 3099 3100 3101 3101 3102 3102 3103 3104 3104 3105 3105 3106 3106 3105 3105 3106 3106 3106 3106 3106 3106 3106 3106 3106 3106 3107 3106 3105 3106 3108 3109 3109 3109 3110 3110 3110 3110 3109 3109 3109 3109 3110 3110 3110 3110 3110 3111 3112 3114 3115 3115 3115 3116 3116 3116 3116 3116 3116 3116 3116 3116 3115 3115 3115 3114 3113 3112 3111 3111 3110 3108 3107 3105 3103 3101 3099 3097 3095 3093 3090 3088 3087
3093 3094 3095 3096 3097 3097 3098 3099 3099 3100 3101 3101 3101 3102 3103 3103 3103 3103 3103 3103 3103 3102 3102 3102 3102 3102 3102 3102 3103 3102 3101 3102 3104 3105 3105 3106 3106 3107 3107 3106 3106 3107 3107 3107 3107 3107 3108 3108 3109 3109 3111 3112 3112 3112 3113 3113 3113 3113 3113 3112 3112 3113 3113 3113 3112 3111 3111 3110 3109 3109 3108 3107 3105 3104 3103 3101 3099 3097 3095 3093 3091 3089 3086 3084 3082
3091 3091 3092 3093 3094 3094 3095 3095 3095 3096 3097 3097 3097 3098 3099 3099 3099 3099 3099 3099 3099 3098 3098 3098 3098 3098 3098 3098 3098 3098 3097 3098 3100 3101 3102 3102 3103 3104 3104 3103 3103 3103 3104 3104 3104 3105 3106 3106 3107 3108 3108 3109 3109 3110 3110 3110 3110 3110 3110 3109 3109 3109 3110 3109 3108 3107 3107 3106 3106 3105 3104 3103 3101 3100 3099 3097 3096 3094 3092 3090 3088 3085 3083 3081 3078
3088 3089 3089 3090 3090 3090 3090 3090 3091 3092 3092 3092 3092 3093 3094 3094 3095 3095 3095 3095 3095 3094 3093 3093 3093 3093 3093 3094 3094 3093 3093 3094 3096 3097 3098 3099 3099 3100 3100 3100 3100 3100 3101 3101 3102 3103 3103 3104 3105 3106 3106 3107 3107 3107 3107 3107 3107 3107 3106 3106 3106 3105 3105 3106 3105 3104 3103 3103 3102 3100 3099 3098 3097 3096 3094 3093 3092 3090 3089 3087 3085 3082 3079 3077 3075
3084 3085 3085 3085 3085 3085 3086 3086 3086 3087 3087 3088 3087 3088 3089 3089 3089 3090 3090 3091 3091 3090 3088 3088 3088 3088 3088 3089 3089 3089 3090 3091 3092 3093 3094 3095 3096 3096 3097 3097 3097 3097 3098 3099 3099 3100 3101 3102 3103 3103 3103 3104 3104 3104 3104 3104 3104 3104 3103 3103 3102 3102 3101 3101 3101 3100 3099 3098 3097 3096 3094 3093 3091 3090 3088 3086 3084 3082 3081 3080 3078 3076 3074 3071 3069
3079 3080 3080 3080 3080 3080 3081 3081 3081 3081 3082 3082 3082 3083 3083 3084 3084 3084 3085 3086 3086 3085 3084 3084 3084 3083 3084 3084 3084 3084 3086 3087 3088 3089 3090 3091 3092 3093 3093 3094 3094 3094 3095 3096 3096 3096 3098 3100 3100 3100 3101 3101 3101 3101 3101 3101 3101 3101 3101 3100 3100 3099 3098 3097 3097 3097 3096 3095 3093 3092 3090 3089 3087 3085 3083 3081 3079 3077 3075 3074 3072 3070 3068 3066 3064
3074 3074 3074 3074 3074 3075 3075 3075 3075 3075 3076 3076 3077 3077 3078 3078 3079 3079 3080 3081 3081 3081 3081 3080 3079 3079 3081 3081 3080 3080 3082 3083 3084 3085 3086 3087 3089 3089 3090 3091 3091 3092 3093 3093 3092 3093 3095 3097 3097 3097 3098 3098 3098 3098 3098 3098 3098 3098 3098 3097 3097 3096 3095 3094 3094 3093 3092 3091 3089 3088 3086 3085 3083 3082 3080 3078 3076 3074 3072 3070 3068 3066 3064 3062 3060
3069 3069 3069 3069 3069 3069 3068 3068 3068 3068 3069 3069 3070 3071 3072 3073 3074 3074 3075 3075 3076 3076 3076 3076 3075 3075 3077 3078 3077 3077 3078 3079 3081 3082 3083 3084 3085 3086 3087 3087 3088 3089 3089 3089 3089 3090 3093 3093 3093 3094 3094 3095 3095 3095 3095 3095 3095 3094 3094 3094 3093 3093 3092 3091 3090 3090 3089 3087 3085 3084 3083 3081 3079 3077 3075 3073 3071 3070 3068 3066 3064 3062 3060 3058 3056
3062 3062 3062 3062 3062 3062 3062 3062 3062 3062 3062 3062 3062 3063 3064 3066 3067 3068 3069 3070 3070 3071 3071 3071 3071 3071 3071 3072 3073 3073 3074 3075 3077 3078 3079 3080 3082 3082 3083 3084 3085 3085 3085 3086 3087 3088 3089 3089 3090 3091 3091 3091 3092 3092 3091 3091 3091 3091 3091 3090 3090 3089 3089 3088 3087 3086 3084 3083 3081 3080 3079 3077 3075 3073 3071 3069 3067 3065 3063 3062 3060 3058 3056 3053 3051
3054 3054 3054 3053 3053 3053 3053 3053 3054 3054 3054 3055 3055 3055 3056 3057 3059 3061 3063 3063 3064 3065 3065 3066 3067 3067 3067 3067 3068 3069 3069 3071 3072 3074 3075 3077 3078 3079 3079 3080 3081 3081 3081 3082 3084 3085 3085 3086 3087 3087 3087 3088 3088 3087 3087 3087 3087 3087 3087 3087 3086 3086 3085 3084 3083 3082 3080 3079 3077 3076 3074 3073 3071 3069 3066 3065 3062 3060 3058 3056 3054 3052 3050 3047 3045
3045 3045 3044 3044 3043 3043 3043 3044 3044 3045 3045 3046 3047 3047 3048 3049 3050 3052 3055 3057 3058 3059 3059 3060 3062 3062 3063 3063 3062 3063 3064 3066 3067 3068 3070 3072 3073 3074 3075 3076 3076 3077 3077 3078 3079 3081 3081 3082 3083 3083 3084 3084 3084 3083 3083 3083 3083 3083 3083 3083 3082 3082 3081 3080 3079 3078 3077 3075 3074 3072 3070 3069 3067 3065 3063 3061 3059 3057 3054 3052 3049 3047 3044 3042 3039
3037 3037 3036 3035 3035 3034 3034 3034 3035 3035 3036 3037 3038 3039 3040 3042 3043 3045 3047 3050 3051 3052 3053 3055 3056 3057 3058 3059 3058 3057 3058 3060 3062 3063 3065 3066 3068 3070 3070 3071 3072 3072 3073 3074 3075 3076 3077 3078 3078 3079 3080 3080 3080 3080 3079 3079 3079 3079 3079 3078 3078 3077 3077 3076 3075 3074 3073 3072 3070 3069 3067 3065 3063 3062 3060 3058 3056 3054 3051 3048 3046 3043 3040 3037 3035
3031 3030 3029 3028 3028 3027 3027 3027 3026 3027 3028 3029 3030 3031 3032 3034 3036 3037 3039 3041 3043 3044 3046 3048 3049 3050 3051 3052 3052 3052 3052 3054 3056 3059 3061 3062 3063 3064 3065 3066 3066 3067 3069 3070 3071 3072 3072 3073 3075 3075 3076 3076 3076 3076 3075 3075 3075 3075 3074 3074 3074 3073 3073 3072 3071 3070 3069 3068 3066 3065 3063 3062 3060 3058 3057 3055 3053 3050 3048 3045 3042 3039 3037 3034 3032
3025 3024 3023 3023 3022 3021 3021 3020 3020 3020 3020 3020 3021 3023 3024 3026 3028 3030 3032 3033 3034 3036 3038 3040 3042 3044 3045 3046 3047 3048 3047 3048 3051 3053 3055 3056 3058 3059 3060 3061 3062 3064 3065 3066 3067 3068 3069 3070 3071 3071 3071 3072 3071 3071 3071 3071 3071 3071 3071 3070 3069 3069 3069 3068 3067 3066 3065 3064 3063 3061 3060 3058 3057 3055 3054 3052 3050 3047 3045 3042 3039 3036 3033 3031 3028
3021 3020 3018 3017 3016 3016 3015 3014 3014 3014 3013 3013 3014 3014 3016 3018 3020 3022 3025 3027 3028 3030 3031 3034 3036 3038 3039 3041 3043 3043 3042 3043 3046 3048 3049 3050 3052 3054 3055 3057 3058 3060 3061 3062 3063 3064 3065 3066 3067 3067 3067 3067 3067 3066 3066 3066 3066 3066 3067 3066 3066 3065 3065 3064 3063 3062 3061 3060 3059 3058 3057 3055 3054 3052 3051 3049 3046 3044 3041 3039 3036 3033 3030 3027 3024
3016 3015 3014 3013 3012 3011 3010 3009 3009 3008 3008 3008 3008 3008 3009 3011 3012 3014 3017 3020 3022 3024 3025 3028 3030 3031 3032 3035 3038 3039 3038 3039 3041 3044 3045 3047 3049 3050 3051 3053 3054 3056 3057 3058 3060 3061 3062 3063 3063 3064 3064 3063 3063 3062 3063 3062 3062 3062 3062 3062 3062 3061 3061 3060 3060 3059 3058 3057 3056 3055 3054 3052 3051 3049 3047 3045 3043 3041 3038 3036 3033 3030 3027 3024 3021
3013 3012 3011 3010 3008 3007 3006 3005 3004 3003 3003 3003 3002 3002 3003 3004 3006 3008 3010 3013 3015 3017 3019 3022 3025 3026 3027 3029 3032 3034 3035 3036 3038 3040 3042 3044 3045 3047 3048 3050 3051 3052 3054 3056 3057 3058 3059 3059 3060 3060 3060 3059 3059 3059 3059 3058 3058 3058 3058 3058 3057 3057 3057 3057 3056 3056 3055 3054 3053 3052 3051 3050 3048 3047 3045 3043 3040 3038 3036 3033 3030 3027 3023 3021 3018
3010 3009 3008 3006 3005 3003 3002 3001 3000 2999 2998 2997 2997 2997 2998 2998 3000 3002 3004 3006 3007 3010 3013 3015 3018 3021 3023 3025 3027 3029 3031 3033 3034 3035 3037 3039 3041 3043 3044 3046 3048 3049 3051 3053 3054 3055 3056 3056 3056 3056 3056 3055 3055 3055 3055 3055 3055 3055 3055 3055 3054 3054 3054 3054 3053 3052 3052 3051 3050 3049 3048 3047 3046 3044 3042 3040 3038 3036 3033 3030 3027 3024 3020 3018 3016
3008 3006 3005 3003 3001 3000 2998 2997 2995 2994 2992 2992 2991 2991 2992 2993 2994 2996 2998 3000 3002 3005 3007 3009 3012 3015 3018 3021 3023 3025 3027 3029 3030 3031 3033 3035 3037 3039 3040 3042 3044 3046 3048 3050 3051 3052 3053 3053 3053 3053 3052 3052 3052 3053 3052 3052 3053 3053 3052 3052 3052 3051 3051 3051 3050 3050 3049 3048 3048 3047 3046 3045 3044 3042 3040 3038 3036 3034 3031 3028 3024 3021 3018 3015 3013
3005 3004 3002 3000 2998 2996 2994 2992 2991 2988 2987 2986 2986 2985 2986 2987 2988 2991 2993 2996 2998 3001 3002 3004 3007 3011 3013 3016 3019 3021 3023 3025 3027 3029 3030 3031 3033 3035 3037 3038 3041 3043 3045 3047 3048 3048 3049 3050 3049 3049 3049 3050 3050 3050 3050 3050 3050 3050 3050 3050 3049 3049 3048 3048 3048 3047 3047 3046 3046 3045 3044 3043 3041 3040 3038 3036 3034 3031 3028 3025 3022 3019 3016 3013 3011
3003 3001 2999 2997 2995 2993 2990 2988 2985 2983 2981 2980 2980 2981 2982 2982 2983 2986 2989 2992 2995 2997 2998 3000 3003 3006 3008 3011 3014 3016 3019 3022 3024 3026 3027 3028 3030 3032 3034 3036 3039 3041 3042 3043 3044 3045 3046 3046 3046 3046 3047 3047 3047 3047 3047 3047 3047 3047 3047 3047 3046 3046 3046 3046 3045 3045 3044 3044 3043 3043 3042 3041 3039 3038 3036 3034 3031 3029 3026 3023 3020 3017 3014 3012 3010
3001 2999 2997 2995 2992 2989 2986 2983 2980 2977 2976 2976 2976 2977 2978 2979 2980 2983 2985 2988 2991 2994 2995 2997 3000 3002 3004 3007 3010 3012 3015 3018 3020 3021 3023 3024 3026 3029 3031 3033 3036 3038 3039 3040 3041 3042 3043 3043 3043 3043 3044 3044 3043 3044 3044 3044 3044 3044 3044 3044 3044 3044 3044 3044 3043 3043 3042 3042 3041 3041 3040 3039 3037 3036 3034 3032 3029 3027 3024 3021 3018 3015 3013 3010 3008
3000 2998 2995 2992 2989 2986 2982 2978 2975 2973 2973 2972 2973 2974 2975 2976 2977 2980 2983 2985 2988 2991 2993 2994 2996 2999 3001 3004 3007 3009 3011 3014 3016 3018 3019 3020 3022 3025 3027 3030 3032 3034 3036 3037 3038 3038 3039 3039 3040 3040 3040 3040 3041 3041 3042 3042 3041 3042 3041 3041 3042 3042 3042 3042 3042 3041 3041 3040 3040 3039 3038 3037 3036 3034 3032 3030 3027 3025 3022 3019 3016 3014 3011 3009 3007
2998 2996 2993 2991 2987 2983 2979 2976 2974 2972 2971 2971 2971 2971 2972 2973 2975 2978 2982 2984 2987 2989 2991 2992 2994 2997 2999 3002 3004 3006 3008 3009 3012 3014 3015 3016 3018 3020 3023 3026 3029 3031 3032 3033 3034 3034 3035 3036 3037 3037 3037 3038 3038 3038 3039 3039 3039 3039 3039 3039 3040 3040 3040 3040 3040 3039 3039 3039 3038 3037 3036 3035 3034 3032 3030 3028 3026 3023 3021 3018 3015 3013 3010 3008 3005
2997 2995 2992 2989 2986 2982 2978 2976 2973 2972 2970 2970 2970 2970 2971 2973 2976 2979 2981 2984 2986 2988 2990 2991 2993 2996 2998 2999 3001 3003 3004 3006 3008 3010 3011 3013 3015 3018 3020 3023 3025 3027 3029 3030 3031 3032 3033 3034 3035 3035 3035 3035 3036 3036 3036 3036 3036 3037 3037 3038 3038 3038 3038 3038 3038 3038 3037 3037 3036 3036 3035 3034 3033 3031 3029 3027 3025 3023 3020 3017 3014 3012 3010 3007 3004
2996 2994 2992 2989 2985 2982 2979 2977 2975 2973 2972 2972 2972 2972 2974 2977 2979 2980 2982 2984 2986 2988 2989 2991 2993 2995 2997 2998 2999 3000 3001 3003 3005 3007 3009 3011 3013 3015 3017 3020 3022 3024 3026 3027 3028 3030 3032 3032 3033 3033 3033 3033 3033 3033 3034 3034 3034 3035 3036 3036 3037 3037 3037 3037 3037 3036 3036 3036 3035 3034 3033 3033 3031 3030 3028 3026 3024 3021 3019 3016 3014 3011 3009 3006 3003
2996 2994 2992 2989 2986 2983 2980 2979 2977 2976 2976 2975 2976 2977 2978 2979 2981 2981 2983 2984 2986 2987 2989 2991 2994 2995 2996 2997 2998 2999 3000 3001 3003 3005 3007 3009 3010 3012 3015 3018 3020 3022 3024 3025 3027 3029 3029 3030 3030 3031 3031 3031 3031 3031 3032 3032 3033 3034 3034 3035 3035 3035 3035 3035 3035 3035 3035 3034 3034 3033 3032 3031 3030 3029 3027 3025 3023 3020 3018 3016 3013 3010 3007 3005 3002
2996 2994 2992 2990 2987 2985 2983 2982 2981 2980 2980 2980 2980 2980 2981 2981 2982 2983 2984 2986 2987 2988 2989 2992 2994 2995 2996 2997 2998 2999 3000 3000 3001 3002 3005 3007 3009 3011 3014 3017 3018 3020 3022 3024 3025 3026 3027 3027 3028 3028 3029 3029 3029 3029 3030 3031 3032 3032 3033 3033 3033 3034 3034 3034 3034 3034 3033 3033 3032 3032 3031 3030 3029 3028 3026 3024 3022 3020 3018 3015 3013 3010 3007 3004 3002
2996 2995 2993 2991 2989 2987 2986 2985 2985 2984 2983 2983 2983 2983 2983 2983 2984 2985 2986 2987 2988 2989 2990 2992 2994 2995 2996 2996 2998 2999 2999 3000 3001 3003 3005 3007 3009 3012 3014 3016 3018 3019 3021 3022 3023 3024 3025 3025 3026 3026 3027 3027 3028 3028 3029 3030 3030 3031 3032 3032 3032 3032 3033 3033 3033 3033 3032 3032 3031 3031 3030 3029 3028 3027 3025 3023 3021 3019 3017 3015 3012 3010 3007 3004 3002
2997 2995 2994 2992 2991 2989 2988 2988 2987 2986 2986 2985 2985 2985 2985 2985 2985 2985 2986 2987 2988 2989 2990 2992 2993 2995 2995 2996 2997 2999 3000 3000 3002 3004 3006 3008 3010 3012 3014 3015 3017 3018 3019 3020 3021 3022 3023 3023 3023 3024 3025 3026 3026 3027 3028 3028 3029 3030 3030 3031 3031 3031 3032 3032 3032 3031 3031 3031 3031 3030 3029 3028 3027 3026 3024 3022 3021 3019 3017 3014 3012 3009 3007 3004 3001
2998 2996 2995 2994 2992 2991 2990 2989 2988 2988 2988 2987 2987 2987 2987 2987 2986 2986 2987 2988 2989 2990 2991 2992 2993 2994 2995 2996 2997 2998 2999 3001 3002 3003 3005 3007 3009 3011 3013 3014 3015 3016 3017 3019 3020 3020 3021 3021 3022 3022 3023 3024 3025 3026 3027 3027 3028 3029 3029 3029 3030 3030 3030 3030 3030 3030 3030 3030 3029 3029 3028 3027 3026 3025 3023 3022 3020 3018 3016 3014 3011 3009 3006 3004 3001
2999 2998 2996 2995 2994 2993 2991 2990 2990 2989 2989 2989 2989 2989 2988 2988 2989 2989 2989 2989 2989 2990 2991 2992 2993 2994 2995 2996 2996 2997 2998 2999 3001 3002 3004 3006 3008 3010 3011 3013 3014 3015 3016 3017 3018 3018 3019 3020 3020 3021 3022 3023 3024 3025 3026 3026 3027 3027 3028 3028 3029 3029 3029 3029 3029 3029 3029 3029 3028 3028 3027 3026 3025 3024 3022 3021 3019 3017 3015 3013 3011 3008 3006 3004 3002
3001 2999 2998 2996 2995 2994 2993 2992 2991 2991 2990 2990 2990 2990 2990 2990 2990 2990 2990 2990 2991 2991 2992 2992 2993 2994 2995 2995 2996 2996 2997 2999 3000 3001 3003 3005 3006 3008 3010 3011 3013 3014 3015 3016 3016 3017 3018 3019 3019 3020 3021 3022 3023 3024 3025 3025 3026 3026 3027 3027 3027 3028 3028 3028 3028 3028 3028 3028 3027 3027 3026 3025 3024 3023 3022 3020 3018 3016 3014 3012 3010 3008 3006 3004 3002
3003 3001 3000 2998 2997 2996 2994 2993 2992 2992 2991 2991 2991 2991 2991 2991 2991 2991 2991 2991 2991 2992 2992 2993 2993 2994 2995 2995 2996 2997 2998 2999 3000 3001 3003 3004 3006 3007 3009 3010 3012 3013 3014 3014 3015 3016 3017 3018 3018 3019 3020 3021 3022 3023 3024 3024 3025 3025 3026 3026 3026 3027 3027 3027 3027 3027 3027 3026 3026 3025 3025 3024 3023 3022 3020 3019 3018 3016 3014 3012 3010 3008 3006 3004 3002
3005 3003 3002 3000 2999 2998 2996 2995 2994 2993 2992 2992 2991 2991 2991 2991 2991 2991 2991 2991 2991 2992 2992 2993 2993 2994 2995 2996 2996 2997 2998 2999 3000 3001 3003 3004 3006 3007 3008 3009 3010 3011 3013 3013 3014 3015 3016 3017 3017 3018 3019 3021 3021 3022 3023 3023 3024 3024 3025 3025 3025 3026 3026 3026 3026 3026 3025 3025 3025 3024 3023 3023 3022 3021 3019 3018 3017 3015 3013 3011 3009 3008 3006 3004 3001